[[{"header":{"parameterUnit":"m.s-1","parameterCategory":1,"la1":30.2991,"la2":30.254,"lo1":-89.0895,"lo2":-89.0444,"dy":0.0017,"dx":0.0017,"nx":28,"ny":28,"refTime":"2023-08-24T09:00:00:Z","depth":0,"parameterNumber":2,"parameterNumberName":"U-component_of_WINDS"},"data":[0,0,0,0,0,0,0,0,0,0,0,0,0,0,0,0,0,0,0,0,0,0,0,0,0,0,0,0,0,0,0,0,0,0,0,0,0,0,0,0,0,0,0,0,0,0,0,0,0,0,0,0,0,0,0,0,0,0,-3.7196,-3.7196,0,-3.7224,-3.7224,-3.7224,-3.7162,-3.716,-3.7158,-3.7156,-3.7184,-3.7186,-3.7189,0,0,0,0,0,0,0,0,0,0,0,0,0,-3.7088,-3.7091,-3.7196,-3.7196,-3.7196,-3.7224,-3.7224,-3.7224,-3.7162,-3.716,-3.7157,-3.7155,-3.7183,-3.7186,-3.7189,0,0,0,0,0,0,0,0,0,0,0,0,0,-3.7128,-3.7091,-3.7196,-3.7169,-3.7166,-3.7223,-3.7224,-3.7224,-3.7163,-3.716,-3.7157,-3.7154,-3.7182,-3.7186,-3.7189,-3.7274,0,0,-3.7201,-3.7203,0,0,0,0,0,0,0,0,-3.7125,-3.7132,-3.7172,-3.7171,-3.7168,-3.7186,-3.7196,-3.7241,-3.7163,-3.7164,-3.7156,-3.7152,-3.7187,-3.719,-3.7202,-3.7275,-3.7276,-3.7202,-3.7204,-3.7206,-3.7207,0,0,0,0,0,0,0,-3.7123,-3.713,-3.7207,-3.7173,-3.7171,-3.7155,-3.7157,-3.7204,-3.7192,-3.7164,-3.7159,-3.7164,-3.7185,-3.7198,-3.7202,-3.7276,-3.7202,-3.7205,-3.7207,-3.7209,-3.7421,-3.7424,0,0,0,0,0,0,-3.7124,-3.7128,-3.7206,-3.7207,-3.7139,-3.716,-3.7162,-3.7183,-3.7191,-3.719,-3.7166,-3.7161,-3.7193,-3.7198,-3.7203,-3.7302,-3.7206,-3.7209,-3.7212,-3.7418,-3.7422,-3.7425,0,0,0,0,0,0,-3.7122,-3.7131,-3.7205,-3.7167,-3.7175,-3.7165,-3.7189,-3.7186,-3.7199,-3.7193,-3.719,-3.7182,-3.7191,-3.7197,-3.7257,-3.7302,-3.7211,-3.7215,-3.7414,-3.7419,-3.7424,-3.7502,0,0,0,0,0,0,-3.7119,-3.7131,-3.7162,-3.7168,-3.7177,-3.7258,-3.7192,-3.7188,-3.7206,-3.7199,-3.7207,-3.7206,-3.7189,-3.7251,-3.7261,-3.7306,-3.7218,-3.741,-3.7416,-3.7422,-3.7495,-3.7509,-3.7521,0,0,0,0,0,-3.7115,-3.7183,-3.7164,-3.7174,-3.7217,-3.7261,-3.7266,-3.7246,-3.721,-3.7241,-3.7238,-3.7205,-3.7296,-3.7258,-3.7268,-3.7315,-3.7407,-3.7414,-3.7421,-3.7489,-3.7506,-3.752,0,0,0,0,0,0,-3.7182,-3.7183,-3.7162,-3.7234,-3.7248,-3.725,-3.729,-3.7264,-3.7289,-3.7281,-3.7255,-3.7257,-3.7322,-3.7324,-3.7282,-3.7398,-3.7345,-3.7355,-3.7393,-3.7409,-3.7422,-3.742,-3.7221,0,0,0,0,0,-3.7206,-3.7242,-3.724,-3.7304,-3.7312,-3.73,-3.7318,-3.7302,-3.7315,-3.7321,-3.7321,-3.7335,-3.7367,-3.7388,-3.7417,-3.7496,-3.7497,-3.7533,-3.7546,-3.7557,-3.7565,-3.7608,-3.7624,-3.745,-3.745,-3.7449,0,0,-3.7254,-3.7259,-3.7283,-3.7317,-3.7326,-3.7364,-3.7305,-3.7348,-3.7376,-3.7327,-3.7383,-3.7385,-3.7399,-3.7468,-3.7499,-3.7472,-3.7614,-3.7566,-3.7574,-3.7577,-3.7617,-3.7633,-3.7648,-3.7455,-3.7454,-3.7453,0,0,-3.7361,-3.7368,-3.7422,-3.7433,-3.7447,-3.7439,-3.7452,-3.7459,-3.7458,-3.7515,-3.7479,-3.7512,-3.7567,-3.7579,-3.7592,-3.7706,-3.7677,-3.7716,-3.7782,-3.7824,-3.7838,-3.785,-3.7891,-3.7906,-3.7725,-3.7725,-3.7725,0,-3.7419,-3.7475,-3.7453,-3.7499,-3.7515,-3.7474,-3.7528,-3.754,-3.7563,-3.7575,-3.7545,-3.7615,-3.7621,-3.7693,-3.7721,-3.7733,-3.7747,-3.7715,-3.7838,-3.785,-3.7861,-3.7899,-3.7915,-3.773,-3.7729,-3.7729,-3.7728,0,-3.7545,-3.7585,-3.7627,-3.7651,-3.7672,-3.7722,-3.7708,-3.7733,-3.7715,-3.771,-3.7769,-3.7775,-3.7805,-3.7821,-3.7804,-3.7892,-3.7875,-3.7842,-3.7789,-3.7882,-3.7918,-3.7933,-3.7737,-3.7735,-3.7733,-3.7732,0,0,-3.7694,-3.7707,-3.7723,-3.7734,-3.7748,-3.7778,-3.7826,-3.7856,-3.7878,-3.7896,-3.7936,-3.7984,-3.7955,-3.797,-3.7954,-3.799,-3.8081,-3.7953,-3.7953,-3.7977,-3.8178,-3.8203,-3.822,-3.8062,-3.8065,-3.8067,-3.8177,0,-3.78,-3.7883,-3.7866,-3.7948,-3.7985,-3.7947,-3.7989,-3.8003,-3.8,-3.8031,-3.8028,-3.8063,-3.8021,-3.803,-3.8065,-3.8063,-3.8121,-3.8054,-3.8099,-3.8101,-3.8096,-3.8239,-3.8264,-3.8367,-3.8191,-3.8193,-3.8195,0,-3.7934,-3.7958,-3.8044,-3.8054,-3.8068,-3.8107,-3.8133,-3.8163,-3.8178,-3.8174,-3.8192,-3.8169,-3.8218,-3.8165,-3.8231,-3.8187,-3.8204,-3.8206,-3.821,-3.8212,-3.8153,-3.8245,-3.84,-3.8415,-3.8217,-3.8215,-3.8214,0,-3.8034,-3.8088,-3.8146,-3.8157,-3.8169,-3.8197,-3.8204,-3.8216,-3.8235,-3.8259,-3.8271,-3.83,-3.8316,-3.8339,-3.8325,-3.8288,-3.8395,-3.834,-3.8392,-3.8393,-3.8415,-3.8414,-3.8575,-3.8428,-3.8428,-3.8427,-3.8427,0,-3.8154,-3.8208,-3.8192,-3.8228,-3.8287,-3.8268,-3.8327,-3.8329,-3.8341,-3.8376,-3.8346,-3.838,-3.836,-3.8393,-3.8382,-3.844,-3.8447,-3.8445,-3.8441,-3.8447,-3.8448,-3.8458,-3.845,-3.8431,-3.8431,-3.843,-3.8429,0,-3.8275,-3.8266,-3.8328,-3.8335,-3.8338,-3.8382,-3.8388,-3.8422,-3.8418,-3.8464,-3.8473,-3.8467,-3.8504,-3.8493,-3.8533,-3.8526,-3.8599,-3.8586,-3.8594,-3.859,-3.8643,-3.8638,-3.8816,-3.8838,-3.8677,-3.8679,-3.868,0,-3.8352,-3.8393,-3.8405,-3.8427,-3.8436,-3.8472,-3.8492,-3.8475,-3.8497,-3.8518,-3.855,-3.8584,-3.8611,-3.8673,-3.8672,-3.8702,-3.869,-3.875,-3.8694,-3.87,-3.8691,-3.8689,-3.8693,-3.8761,-3.8763,-3.8765,-3.8766,0,-3.8489,-3.8483,-3.8513,-3.8543,-3.8569,-3.8591,-3.861,-3.863,-3.8614,-3.8641,-3.8679,-3.87,-3.8742,-3.8777,-3.8806,-3.8812,-3.8787,-3.8784,-3.8797,-3.8804,-3.8806,-3.8806,-3.8624,-3.8779,-3.8778,-3.8777,-3.8776,-3.8776,-3.859,-3.8625,-3.864,-3.8675,-3.8688,-3.8707,-3.874,-3.874,-3.8772,-3.8805,-3.8793,-3.8837,-3.8852,-3.8888,-3.8898,-3.8933,-3.891,-3.8929,-3.8934,-3.8939,-3.8946,-3.8802,-3.8938,-3.8937,-3.8937,-3.8937,-3.8936,0,-3.8726,-3.8734,-3.8766,-3.8795,-3.8823,-3.8798,-3.8819,-3.8844,-3.8883,-3.89,-3.8927,-3.8972,-3.9006,-3.9008,-3.9041,-3.9068,-3.9057,-3.9077,-3.9074,-3.9077,-3.8965,-3.895,-3.9085,-3.9085,-3.9085,-3.9085,-3.9085,-3.9085,-3.8799,-3.8857,-3.8854,-3.8918,-3.8926,-3.8969,-3.8983,-3.9001,-3.9014,-3.9066,-3.9094,-3.9096,-3.9107,-3.914,-3.9171,-3.9171,-3.9184,-3.9208,-3.9204,-3.9099,-3.9084,-3.907,-3.9056,-3.9211,-3.9212,-3.9312,-3.9313,-3.9314]},{"header":{"parameterUnit":"m.s-1","parameterCategory":1,"la1":30.2991,"la2":30.254,"lo1":-89.0895,"lo2":-89.0444,"dy":0.0017,"dx":0.0017,"nx":28,"ny":28,"refTime":"2023-08-24T09:00:00:Z","depth":0,"parameterNumber":3,"parameterNumberName":"V-component_of_WINDS"},"data":[0,0,0,0,0,0,0,0,0,0,0,0,0,0,0,0,0,0,0,0,0,0,0,0,0,0,0,0,0,0,0,0,0,0,0,0,0,0,0,0,0,0,0,0,0,0,0,0,0,0,0,0,0,0,0,0,0,0,1.1446,1.1447,0,1.1581,1.1583,1.1584,1.1664,1.1664,1.1664,1.1665,1.1805,1.1808,1.1812,0,0,0,0,0,0,0,0,0,0,0,0,0,1.126,1.1263,1.1446,1.1447,1.1449,1.1581,1.1583,1.1585,1.1664,1.1664,1.1665,1.1665,1.1804,1.1808,1.1812,0,0,0,0,0,0,0,0,0,0,0,0,0,1.1363,1.1264,1.1446,1.1504,1.1511,1.1581,1.1583,1.1585,1.1664,1.1664,1.1665,1.1665,1.1803,1.1808,1.1813,1.1835,0,0,1.1828,1.1831,0,0,0,0,0,0,0,0,1.1357,1.1369,1.1494,1.1501,1.1508,1.1606,1.1569,1.1669,1.1663,1.1606,1.1665,1.1665,1.1739,1.1749,1.1773,1.1841,1.1847,1.1829,1.1832,1.1834,1.1836,0,0,0,0,0,0,0,1.1349,1.1364,1.1499,1.1496,1.1504,1.1526,1.1541,1.1588,1.1668,1.1611,1.1617,1.1632,1.1743,1.1768,1.1777,1.1849,1.1829,1.1833,1.1836,1.1839,1.1945,1.1945,0,0,0,0,0,0,1.1333,1.1357,1.1495,1.1504,1.1432,1.1528,1.1545,1.1574,1.1667,1.1682,1.1631,1.1635,1.1759,1.1771,1.1782,1.1816,1.1834,1.1839,1.1842,1.1946,1.1945,1.1945,0,0,0,0,0,0,1.1328,1.1344,1.149,1.1432,1.1452,1.1531,1.1563,1.1577,1.1602,1.1683,1.1698,1.1642,1.176,1.1775,1.1822,1.1822,1.1841,1.1846,1.1946,1.1945,1.1945,1.1882,0,0,0,0,0,0,1.1323,1.1342,1.135,1.1432,1.1455,1.1525,1.1563,1.1579,1.1611,1.1617,1.1697,1.1711,1.1762,1.1814,1.1827,1.1829,1.185,1.1946,1.1946,1.1945,1.1884,1.1879,1.1875,0,0,0,0,0,1.1316,1.1326,1.135,1.1366,1.1466,1.1525,1.1538,1.1595,1.161,1.162,1.1672,1.1709,1.182,1.1818,1.1833,1.1837,1.1946,1.1946,1.1945,1.1886,1.188,1.1875,0,0,0,0,0,0,1.1242,1.1338,1.1365,1.1402,1.1455,1.1538,1.1551,1.1587,1.1636,1.164,1.171,1.1727,1.1768,1.1807,1.1803,1.1865,1.1888,1.189,1.1837,1.1832,1.1828,1.1817,1.1854,0,0,0,0,0,1.123,1.1269,1.1351,1.1376,1.1401,1.1471,1.1499,1.1539,1.1596,1.1619,1.1674,1.1729,1.1778,1.1807,1.1855,1.1891,1.1911,1.1902,1.1897,1.1893,1.1895,1.1919,1.1917,1.1943,1.1943,1.1943,0,0,1.1206,1.1263,1.1283,1.1363,1.1408,1.1448,1.149,1.1529,1.156,1.1625,1.1672,1.1715,1.1782,1.1823,1.1845,1.1858,1.1892,1.1893,1.1889,1.1892,1.1918,1.1916,1.1913,1.1943,1.1943,1.1943,0,0,1.1182,1.1229,1.1256,1.1301,1.1369,1.1417,1.1423,1.1502,1.1533,1.1582,1.1632,1.1671,1.1751,1.1797,1.1831,1.1828,1.1864,1.1842,1.1818,1.1841,1.1839,1.1837,1.1838,1.1837,1.1843,1.1843,1.1843,0,1.1144,1.1204,1.1265,1.1303,1.1337,1.1399,1.1428,1.1469,1.155,1.1573,1.1587,1.1691,1.1739,1.1794,1.1793,1.1818,1.183,1.1832,1.1834,1.1833,1.1833,1.1834,1.1834,1.184,1.184,1.184,1.1841,0,1.1154,1.1196,1.121,1.1286,1.1323,1.1356,1.1423,1.1453,1.1491,1.1537,1.1588,1.1649,1.1712,1.1728,1.1765,1.1789,1.1795,1.1821,1.1844,1.1826,1.1829,1.183,1.1835,1.1836,1.1837,1.1838,0,0,1.1086,1.1198,1.1202,1.1239,1.132,1.1354,1.1391,1.1453,1.1478,1.1532,1.1566,1.1634,1.1659,1.1698,1.1741,1.1761,1.1757,1.1785,1.1787,1.1778,1.179,1.1771,1.177,1.1782,1.1783,1.1783,1.1785,0,1.1074,1.1143,1.12,1.1248,1.1289,1.135,1.1383,1.1437,1.1482,1.1525,1.1576,1.1623,1.1651,1.1675,1.1698,1.1753,1.1761,1.1753,1.1816,1.1818,1.1798,1.1771,1.175,1.1749,1.1786,1.1787,1.1787,0,1.1069,1.1122,1.1173,1.1254,1.1273,1.1301,1.1364,1.1403,1.1467,1.1499,1.1543,1.1589,1.1633,1.1653,1.1716,1.171,1.174,1.1771,1.1773,1.1781,1.1801,1.1779,1.175,1.175,1.1789,1.1788,1.1788,0,1.1015,1.1099,1.1142,1.1171,1.1265,1.1284,1.1324,1.1389,1.1424,1.1479,1.1502,1.1562,1.1595,1.1641,1.1703,1.1711,1.176,1.1785,1.1789,1.1788,1.1796,1.1795,1.1772,1.1815,1.1815,1.1815,1.1815,0,1.0997,1.1026,1.1119,1.1145,1.1181,1.1249,1.1283,1.1329,1.1386,1.1424,1.1481,1.1515,1.1594,1.1639,1.1687,1.1733,1.1748,1.1776,1.1789,1.1771,1.1767,1.1791,1.1793,1.1815,1.1815,1.1815,1.1815,0,1.0942,1.1005,1.1056,1.1141,1.1164,1.1187,1.1261,1.129,1.134,1.1387,1.1402,1.148,1.1536,1.1602,1.1679,1.1712,1.1754,1.1773,1.1732,1.1739,1.1741,1.174,1.1732,1.1736,1.1775,1.1774,1.1774,0,1.0925,1.095,1.1039,1.1068,1.1107,1.1152,1.1188,1.1257,1.1292,1.1369,1.1389,1.1449,1.1501,1.1588,1.1652,1.1712,1.1733,1.1727,1.1742,1.1725,1.1735,1.1733,1.1736,1.1722,1.1721,1.172,1.172,0,1.089,1.0921,1.097,1.1031,1.1072,1.1123,1.1177,1.1198,1.1278,1.1315,1.1372,1.1412,1.1492,1.1552,1.1621,1.1665,1.1706,1.1715,1.1719,1.1701,1.1677,1.1692,1.1721,1.1714,1.1715,1.1715,1.1715,1.1716,1.0855,1.0881,1.0948,1.1001,1.1049,1.1099,1.1131,1.1185,1.1234,1.1304,1.1342,1.14,1.1467,1.1564,1.1607,1.1654,1.1668,1.1674,1.1676,1.1676,1.1672,1.167,1.1667,1.1667,1.1667,1.1667,1.1668,0,1.0824,1.0871,1.0919,1.0993,1.1036,1.1072,1.1134,1.1168,1.1217,1.1276,1.1326,1.1394,1.1454,1.1524,1.1588,1.1613,1.1634,1.1627,1.1626,1.1636,1.1655,1.1645,1.161,1.161,1.161,1.161,1.161,1.161,1.0813,1.0858,1.0898,1.0969,1.1016,1.1073,1.1105,1.1153,1.12,1.1273,1.1323,1.1368,1.1433,1.1503,1.156,1.1579,1.1601,1.1589,1.1614,1.163,1.1635,1.1639,1.1631,1.1593,1.1593,1.1592,1.1592,1.1592]}]]